Location: Camp Carl - Ravenna
(41.1174°N, 81.1001°W)
Time: 08:59:58
(UTC-04:00)

ISS - Visible Passes

Search period start: 23 May 2018 00:00
Search period end: 02 June 2018 00:00
Orbit: 402 x 407 km, 51.6° (Epoch: 24 May)

Date Brightness Start Highest point End Pass type
(mag) Time Alt. Az. Time Alt. Az. Time Alt. Az.
23 May -0.4 00:49:57 10° NNW 00:51:35 13° N 00:53:13 10° NNE visible
23 May -1.2 02:26:26 10° NNW 02:29:00 21° NNE 02:31:35 10° ENE visible
23 May -4.0 04:02:31 10° WNW 04:05:47 75° SW 04:09:01 10° SE visible
23 May -1.9 22:18:52 10° W 22:21:51 32° NNW 22:24:50 10° NE visible
23 May -0.5 23:57:18 10° NW 23:59:06 14° N 00:00:53 10° NNE visible
24 May -0.8 01:34:24 10° NNW 01:36:35 16° NNE 01:37:41 14° NE visible
24 May -2.9 21:26:21 10° WSW 21:29:34 52° NNW 21:32:46 10° NE visible
24 May -0.7 23:04:29 10° NW 23:06:36 16° NNW 23:08:44 10° NNE visible
25 May -0.6 00:42:15 10° NNW 00:44:06 14° N 00:45:56 10° NE visible
25 May -0.8 02:18:17 10° NW 02:18:38 12° NW 02:18:38 12° NW visible
25 May -1.0 22:11:38 10° WNW 22:14:09 20° NNW 22:16:40 10° NNE visible
25 May -0.6 23:49:56 10° NNW 23:51:35 13° N 23:53:14 10° NNE visible
26 May -1.0 01:26:15 10° NW 01:27:39 18° NNW 01:27:39 18° NNW visible
26 May -1.5 21:18:52 10° W 21:21:45 27° NNW 21:24:37 10° NE visible
26 May -0.7 22:57:20 10° NW 22:59:03 13° N 23:00:45 10° NNE visible
27 May -1.1 00:34:11 10° NNW 00:36:31 18° NNE 00:36:52 17° NNE visible
27 May -0.8 22:04:31 10° NW 22:06:31 15° N 22:08:31 10° NNE visible
27 May -0.8 23:42:03 10° NNW 23:44:01 15° N 23:45:58 10° NE visible
28 May -0.9 01:18:02 10° NW 01:18:46 15° NW 01:18:46 15° NW visible
28 May -0.8 22:49:46 10° NNW 22:51:28 13° N 22:53:09 10° NE visible
29 May -1.5 00:25:57 10° NW 00:28:06 24° N 00:28:06 24° N visible
29 May -0.8 21:57:13 10° NNW 21:58:53 13° N 22:00:33 10° NNE visible
29 May -1.4 23:33:51 10° NNW 23:36:20 19° NNE 23:37:27 16° NE visible
30 May -0.7 01:09:54 10° NW 01:10:06 11° NW 01:10:06 11° NW visible
30 May -1.0 22:41:43 10° NNW 22:43:48 16° NNE 22:45:53 10° NE visible
31 May -1.8 00:17:41 10° NW 00:19:29 28° NNW 00:19:29 28° NNW visible
31 May -1.0 21:49:27 10° NNW 21:51:13 14° N 21:52:59 10° NE visible
31 May -2.3 23:25:32 10° NW 23:28:29 30° NNE 23:28:54 29° NE visible
01 Jun -1.6 22:33:25 10° NNW 22:36:01 21° NNE 22:38:20 11° ENE visible
